Location: Caltech
(34.1382°N, 118.1253°W)
Time: 01:32:38
(UTC-07:00)

Sapphire - Visible Passes

Search period start: 25 April 2017 00:00
Search period end: 05 May 2017 00:00
Orbit: 785 x 797 km, 67.1° (Epoch: 23 April)

Date Brightness Start Highest point End Pass type
(mag) Time Alt. Az. Time Alt. Az. Time Alt. Az.
25 Apr ? 03:17:46 49° N 03:17:46 49° N 03:21:50 10° NNE visible
26 Apr ? 02:47:56 38° NNE 02:47:56 38° NNE 02:51:13 10° NNE visible
26 Apr ? 04:28:40 12° WNW 04:29:50 13° NW 04:32:16 10° NNW visible
27 Apr ? 02:18:04 26° NE 02:18:04 26° NE 02:20:29 10° NNE visible
27 Apr ? 03:58:47 18° NW 03:58:56 18° NW 04:02:31 10° N visible
28 Apr ? 01:48:09 18° NE 01:48:09 18° NE 01:49:38 10° NE visible
28 Apr ? 03:28:52 23° NW 03:28:52 23° NW 03:32:25 10° N visible
29 Apr ? 01:18:11 12° NE 01:18:11 12° NE 01:18:38 10° NE visible
29 Apr ? 02:58:54 27° NNW 02:58:54 27° NNW 03:02:08 10° N visible
30 Apr ? 02:28:55 28° N 02:28:55 28° N 02:31:43 10° NNE visible
01 May ? 01:58:53 26° NNE 01:58:53 26° NNE 02:01:13 10° NNE visible
02 May ? 01:28:48 22° NNE 01:28:48 22° NNE 01:30:36 10° NNE visible
02 May ? 03:09:31 12° NW 03:09:31 12° NW 03:11:19 10° NNW visible
03 May ? 00:58:42 17° NE 00:58:42 17° NE 00:59:54 10° NNE visible
03 May ? 02:39:24 16° NW 02:39:24 16° NW 02:41:45 10° NNW visible
04 May ? 00:28:33 13° NE 00:28:33 13° NE 00:29:05 10° NE visible
04 May ? 02:09:15 19° NNW 02:09:15 19° NNW 02:11:41 10° N visible
